Brighton, MI (48114)

5:00 AM EST on February 12, 2016 (GMT -0500)
Fonda Lake | | Change Station
CLOSE
Current Station
Personal Weather Station
Location: Brighton, MI
Elevation: 897 ft
Nearby Weather Stations

Elev 897 ft 42.51 °N, 83.75 °W | Updated 3 minutes ago

Clear
Clear
6.7 °F
Feels Like 7 °F
N
1.0
Wind Variable Wind from ESE
Gusts 1.5 mph

Today
High -- | Low -- °F
--% Chance of Precip.
Yesterday
High -- | Low -- °F
Precip. -- in
Pressure 30.07 in
Visibility 10.0 miles
Clouds Mostly Cloudy 8000 ft
Windchill 7 °F
Dew Point 3 °F
Humidity 84%
Rainfall 0.00 in
Snow Depth Not available.
7:36 AM 6:02 PM
Waxing Crescent, 19% visible
METAR KOZW 120954Z AUTO 21005KT 10SM BKN080 M12/M15 A3007 RMK AO2 T11161146
Pressure 30.07 in
Visibility 10.0 miles
Clouds Mostly Cloudy 8000 ft
Windchill 7 °F
Dew Point 3 °F
Humidity 84%
Rainfall 0.00 in
Snow Depth Not available.
7:36 AM 6:02 PM
Waxing Crescent, 19% visible
METAR KOZW 120954Z AUTO 21005KT 10SM BKN080 M12/M15 A3007 RMK AO2 T11161146

10-Day Weather Forecast

Almanac

Astronomy

Feb. 12, 2016 Rise Set
Actual Time
Civil Twilight
Nautical Twilight
Astronomical Twilight
Moon
Length of Visible Light
Length of Day
Tomorrow will be .
, % of the Moon is Illuminated

Today's Extremes

State Highs State Lows

Community

WunderPhotos

Upload Photos

1,892,286 photos uploaded!

WunderBlog® & News

Nearby

Air Quality

  Air Quality AQ Index Pollutant
Not available.

Snow Depth

Station Depth Elevation

Earthquake Activity

City Distance Mag. Time & Date
Minimum magnitude displayed is 2.5.

Coastal Water Temperatures

Place Temperature

Stations

Nearby Weather Stations

Station Location Temp. Windchill Dew Point Humidity Wind Precip. Elev Updated Type
                   

Watches & Warnings

There are currently no watches in effect.